Content
SEND FEEDBACK

Daily
Averages
Monthly
Summary
United States of America

LUCK, WISCONSIN


Home > North America > United States > Wisconsin
Elevation: 1220 feet     Latitude: 45 34N     Longitude: 092 28W

WEATHER
 
SELECT A DAY
Number of Records: 471,703;   Date Range: 3/26/01 - 8/30/14
 
SHARE

PRINT THIS DATA

[ ← Previous Day ]
WEATHER ALMANAC - JANUARY 31, 2013
[ Next Day → ]
[ °C ]   °F
Weather ElementAverageHighLow
Temperature3.4 °F8.6 °F (12:35 am)-7.6 °F (11:35 pm)
Dewpoint-5.2 °F1.4 °F (12:35 am)-14.8 °F (11:15 pm)
Humidity67.9 %85 % (4:15 am)56 % (12:55 pm)
Barometer29.93 in30.19 in (11:55 pm)29.69 in (12:35 am)
Wind Speed12 mph18.4 mph (11:15 am)
Wind Gust25.3 mph (12:55 pm)
Weather ElementAverage
Visibility8.8 mi
Wind DirectionNNW (325 °)

Weather ElementTotal
Precipitation---
Heating Degree Days64.5 (Base 65)
Averaged from 70 records on January 31, 2013
WEATHER CONDITIONS BREAKOUT
WIND DIRECTION BREAKOUT
WEATHER BY HOUR - JANUARY 31, 2013
[ °C ]   °F
Local TimeTemperatureDewpointHumidityBarometerVisibilityWind DirectionWind SpeedGust SpeedPrecipitationEventsConditions
12:35 AM8.6 °F1.4 °F73 %29.69 in10.0 miNorth (360°)11.5 mph20.7 mphOvercast
12:55 AM8.6 °F1.4 °F73 %29.69 in7.0 miNorth (360°)8.1 mphOvercast
1:35 AM8.6 °F1.4 °F73 %29.70 in10.0 miNNW (340°)9.2 mphOvercast
1:55 AM8.6 °F1.4 °F73 %29.71 in10.0 miNNW (340°)11.5 mphOvercast
2:15 AM8.6 °F1.4 °F73 %29.72 in10.0 miNNW (340°)10.4 mphOvercast
2:35 AM8.6 °F1.4 °F73 %29.72 in10.0 miNW (320°)8.1 mphOvercast
2:55 AM6.8 °F1.4 °F79 %29.72 in7.0 miNW (310°)6.9 mphSnowLight Snow
3:15 AM6.8 °F1.4 °F79 %29.72 in7.0 miNW (320°)8.1 mphSnowLight Snow
3:35 AM6.8 °F1.4 °F79 %29.72 in7.0 miNNW (330°)13.8 mphOvercast
3:55 AM6.8 °F1.4 °F79 %29.73 in5.0 miNW (320°)12.7 mph18.4 mphSnowLight Snow
4:15 AM5.0 °F1.4 °F85 %29.73 in5.0 miNNW (330°)15.0 mphSnowLight Snow
4:35 AM5.0 °F-0.4 °F78 %29.74 in7.0 miNNW (330°)10.4 mphSnowLight Snow
4:55 AM5.0 °F-0.4 °F78 %29.75 in10.0 miNNW (330°)10.4 mphClear
5:15 AM3.2 °F-0.4 °F85 %29.75 in10.0 miNW (320°)8.1 mphClear
5:35 AM3.2 °F-0.4 °F85 %29.76 in10.0 miNW (320°)9.2 mphClear
5:55 AM3.2 °F-2.2 °F78 %29.77 in10.0 miNW (320°)10.4 mphScattered Clouds
6:15 AM3.2 °F-2.2 °F78 %29.78 in10.0 miNW (310°)10.4 mphMostly Cloudy
6:35 AM3.2 °F-4.0 °F72 %29.79 in10.0 miNW (320°)10.4 mph16.1 mphMostly Cloudy
6:55 AM3.2 °F-4.0 °F72 %29.80 in10.0 miNNW (330°)13.8 mph18.4 mphMostly Cloudy
7:15 AM3.2 °F-4.0 °F72 %29.81 in10.0 miNNW (330°)10.4 mphMostly Cloudy
7:35 AM3.2 °F-4.0 °F72 %29.82 in10.0 miNNW (330°)12.7 mphMostly Cloudy
7:55 AM3.2 °F-4.0 °F72 %29.83 in10.0 miNNW (330°)9.2 mphMostly Cloudy
8:15 AM3.2 °F-4.0 °F72 %29.84 in7.0 miNW (320°)12.7 mphMostly Cloudy
8:35 AM3.2 °F-4.0 °F72 %29.85 in4.0 miNNW (330°)11.5 mphSnowLight Snow
8:55 AM3.2 °F-4.0 °F72 %29.86 in5.0 miNNW (330°)11.5 mph18.4 mphHaze
9:15 AM3.2 °F-4.0 °F72 %29.87 in4.0 miNNW (340°)10.4 mph18.4 mphHaze
9:35 AM3.2 °F-5.8 °F66 %29.88 in3.0 miNNW (340°)15.0 mph20.7 mphSnowLight Snow
9:55 AM3.2 °F-4.0 °F72 %29.89 in3.0 miNNW (340°)16.1 mphHaze
10:15 AM3.2 °F-4.0 °F72 %29.90 in2.0 miNorth (350°)13.8 mph20.7 mphHaze
10:35 AM3.2 °F-5.8 °F66 %29.91 in3.0 miNorth (350°)12.7 mph19.6 mphHaze
10:55 AM3.2 °F-5.8 °F66 %29.92 in3.0 miNorth (10°)11.5 mph21.9 mphHaze
11:15 AM3.2 °F-5.8 °F66 %29.92 in10.0 miNNW (340°)18.4 mphOvercast
11:35 AM5.0 °F-5.8 °F61 %29.93 in10.0 miNNW (340°)16.1 mph19.6 mphOvercast
11:55 AM5.0 °F-5.8 °F61 %29.93 in10.0 miNNW (330°)18.4 mphOvercast
12:15 PM5.0 °F-5.8 °F61 %29.93 in10.0 miNNW (340°)10.4 mph19.6 mphMostly Cloudy
12:35 PM5.0 °F-5.8 °F61 %29.93 in10.0 miNNW (330°)11.5 mphScattered Clouds
12:55 PM6.8 °F-5.8 °F56 %29.94 in10.0 miNorth (360°)15.0 mph25.3 mphScattered Clouds
1:15 PM5.0 °F-5.8 °F61 %29.94 in10.0 miNNW (340°)17.3 mph21.9 mphScattered Clouds
1:35 PM6.8 °F-5.8 °F56 %29.95 in10.0 miNNW (330°)15.0 mphMostly Cloudy
1:55 PM6.8 °F-5.8 °F56 %29.96 in10.0 miNNW (340°)11.5 mph24.2 mphMostly Cloudy
2:15 PM6.8 °F-5.8 °F56 %29.96 in10.0 miNNW (340°)16.1 mphMostly Cloudy
2:35 PM6.8 °F-5.8 °F56 %29.97 in10.0 miNorth (350°)11.5 mph17.3 mphMostly Cloudy
2:55 PM6.8 °F-5.8 °F56 %29.98 in10.0 miNNW (340°)15.0 mph21.9 mphMostly Cloudy
3:15 PM6.8 °F-4.0 °F61 %29.99 in10.0 miNNW (330°)13.8 mphMostly Cloudy
3:35 PM6.8 °F-5.8 °F56 %30.00 in10.0 miNNW (340°)12.7 mphScattered Clouds
3:55 PM6.8 °F-4.0 °F61 %30.00 in10.0 miNW (310°)13.8 mph17.3 mphMostly Cloudy
4:15 PM5.0 °F-4.0 °F66 %30.01 in10.0 miNW (320°)17.3 mph20.7 mphMostly Cloudy
4:35 PM6.8 °F-5.8 °F56 %30.02 in10.0 miNNW (340°)16.1 mphScattered Clouds
4:55 PM5.0 °F-5.8 °F61 %30.03 in10.0 miNNW (330°)15.0 mphScattered Clouds
5:15 PM5.0 °F-5.8 °F61 %30.04 in10.0 miNNW (330°)17.3 mph20.7 mphScattered Clouds
5:35 PM5.0 °F-5.8 °F61 %30.05 in10.0 miNNW (330°)12.7 mph17.3 mphScattered Clouds
5:55 PM3.2 °F-7.6 °F61 %30.07 in10.0 miNNW (330°)11.5 mphScattered Clouds
6:15 PM3.2 °F-7.6 °F61 %30.08 in10.0 miNNW (340°)16.1 mphMostly Cloudy
6:35 PM3.2 °F-7.6 °F61 %30.09 in10.0 miNNW (340°)15.0 mph20.7 mphMostly Cloudy
6:55 PM1.4 °F-7.6 °F66 %30.09 in10.0 miNNW (330°)11.5 mph17.3 mphClear
7:15 PM1.4 °F-9.4 °F61 %30.10 in10.0 miNNW (330°)11.5 mph16.1 mphClear
7:35 PM1.4 °F-9.4 °F61 %30.11 in10.0 miNW (320°)13.8 mphMostly Cloudy
7:55 PM1.4 °F-9.4 °F61 %30.12 in10.0 miNNW (330°)11.5 mphScattered Clouds
8:15 PM-0.4 °F-9.4 °F66 %30.12 in10.0 miNNW (330°)10.4 mphClear
8:35 PM-0.4 °F-9.4 °F66 %30.13 in10.0 miNNW (330°)11.5 mphClear
8:55 PM-0.4 °F-9.4 °F66 %30.14 in10.0 miNW (320°)8.1 mphClear
9:15 PM-0.4 °F-9.4 °F66 %30.14 in10.0 miNW (310°)8.1 mphClear
9:35 PM-2.2 °F-9.4 °F71 %30.15 in10.0 miNW (310°)8.1 mphClear
9:55 PM-4.0 °F-11.2 °F71 %30.16 in10.0 miNW (310°)8.1 mphClear
10:15 PM-4.0 °F-13.0 °F65 %30.16 in10.0 miNW (310°)9.2 mphClear
10:35 PM-5.8 °F-13.0 °F71 %30.16 in10.0 miNW (310°)9.2 mphClear
10:55 PM-5.8 °F-13.0 °F71 %30.17 in10.0 miNW (310°)12.7 mph17.3 mphClear
11:15 PM-5.8 °F-14.8 °F65 %30.17 in10.0 miNW (310°)8.1 mphClear
11:35 PM-7.6 °F-14.8 °F71 %30.18 in10.0 miNW (310°)9.2 mphClear
11:55 PM-7.6 °F-14.8 °F71 %30.19 in10.0 miNW (310°)8.1 mphClear
Hourly data recorded from KRZN, located miles away from Luck, Wisconsin







STORIES FROM OUR PARTNERS